Miscellaneous Local Product
Issued by NWS North Platte, NE

Home | Current Version | Previous Version | Text Only | Print | Product List | Glossary On
Versions: 1 2 3 4 5 6 7 8 9 10 11 12 13 14 15 16 17 18 19 20 21 22 23 24 25 26 27 28 29 30 31 32 33 34 35 36 37 38 39 40 41 42 43 44 45 46 47 48 49 50
000
AXUS43 KLBF 090110
MISLBF


WESTERN AND NORTH CENTRAL NEBRASKA HOURLY WEATHER ROUNDUP
NATIONAL WEATHER SERVICE NORTH PLATTE NE
800 PM CDT MON AUG 08 2022

NOTE: "FAIR" INDICATES FEW OR NO CLOUDS BELOW 12,000 FEET WITH NO
SIGNIFICANT WEATHER AND/OR OBSTRUCTIONS TO VISIBILITY.

NOTE: STATIONS NOT REPORTING SKY/WEATHER AND PRESSURE ARE
PROVIDED BY RAWS AND APRS NETWORKS AND ARE NOT UNDER NATIONAL
WEATHER SERVICE QUALITY CONTROL.

...OBSERVATIONS IN AND NEAR THE EASTERN PANHANDLE OF NEBRASKA...

CITY           SKY/WX    TMP DP  RH WIND       PRES   REMARKS
PINE RIDGE     SUNNY     90  51  26 S13       30.00F
GORDON         CLEAR     86  55  34 S6        30.03F
CHADRON        MOSUNNY   93  50  23 S16       29.98F HX  90
ALLIANCE       CLEAR     87  52  29 S16G24    30.06F
SIDNEY         PTCLDY    82  52  35 S16       30.11R
CRESCENT LAKE    N/A     84  53  33 S9G16       N/A
$$

...OBSERVATIONS IN NORTHERN NEBRASKA AND FAR SOUTHERN SOUTH DAKOTA...

CITY           SKY/WX    TMP DP  RH WIND       PRES   REMARKS
WINNER         CLEAR     84  59  42 E9        30.02S
VALENTINE      CLEAR     86  55  34 SE13      30.02F
AINSWORTH      CLEAR     81  56  42 E8        30.05F
O`NEILL        CLEAR     77  57  49 SE9       30.08S
THEDFORD       CLEAR     85  55  35 SE10      30.07S
BROKEN BOW     CLEAR     77  62  59 SE8       30.08F
ORD            CLEAR     79  59  50 E6        30.06F
ALBION         CLEAR     75  58  54 E3        30.09S
EWING            N/A     76  64  67 CALM        N/A
CHAMBERS         N/A     77  60  55 SE3         N/A
BUTTE            N/A     79  59  50 SE6         N/A
SPRINGVIEW       N/A     83  61  47 E8G18       N/A
VALENTINE NWR    N/A     88  53  29 SE12        N/A
HALSEY           N/A     87  53  31 SE7         N/A
$$

...OBSERVATIONS IN SOUTHWEST NEBRASKA AND FAR NORTHEAST COLORADO...

CITY           SKY/WX    TMP DP  RH WIND       PRES   REMARKS
WRAY           FAIR      82  52  34 SE13      30.12S
HOLYOKE        CLEAR     84  50  30 S12       30.12R
IMPERIAL       CLEAR     84  52  33 S10       30.10S
OGALLALA       CLEAR     87  49  27 S12       30.09S
NORTH PLATTE   CLEAR     80  61  52 E13       30.08S
MCCOOK         CLEAR     82  54  37 E12       30.09R
LEXINGTON      CLEAR     78  62  58 SE7       30.10S
CALLAWAY         N/A     80  67  64 S9          N/A
STAPLETON        N/A     81  60  49 CALM        N/A
$$

...OBSERVATIONS IN CENTRAL LINCOLN COUNTY AREA...

CITY           SKY/WX    TMP DP  RH WIND       PRES   REMARKS
N.P. AIRPORT   CLEAR     80  61  52 E13       30.08S
N.P. HILLCREST   N/A     80  61  52 E15         N/A
N.P. DOWNTOWN    N/A     81  64  55 CALM        N/A
N.P. SOUTHEAST   N/A     80  63  56 SE3         N/A
$$

...OBSERVATIONS ACROSS THE ROCKIES AND WESTERN HIGH PLAINS...

CITY           SKY/WX    TMP DP  RH WIND       PRES   REMARKS
SCOTTSBLUFF    MOSUNNY   82  54  37 S13       30.06S
KIMBALL        PTSUNNY   74  58  56 S12       30.15F
CHEYENNE       MOSUNNY   82  49  31 E16       30.20S
DENVER         MOSUNNY   86  55  34 S17G24    30.14F
STEAMBOAT      FAIR      83  36  18 W6        30.24S
COPPER MTN     CLOUDY    68  32  26 NW14G20   30.71F
LEADVILLE      CLOUDY    71  31  22 W8        30.50F
ASPEN          MOSUNNY   79  38  22 W5        30.31F
GUNNISON       MOSUNNY   81  44  27 NW7       30.29F
TELLURIDE      PTSUNNY   73  34  23 NW3       30.45S
LARAMIE        PTSUNNY   80  32  17 VRB7      30.27F
CASPER         SUNNY     88  36  15 N8        30.12S
GILLETTE       SUNNY     90  39  16 N8        30.07S
SHERIDAN       SUNNY     91  50  24 N7        30.04S
JACKSON        SUNNY     79  39  23 W6        30.27F
$$

...OBSERVATIONS ACROSS THE NORTHERN PLAINS...

CITY           SKY/WX    TMP DP  RH WIND       PRES   REMARKS
RAPID CITY     SUNNY     87  55  33 E14       30.00S
PIERRE         CLEAR     84  58  40 SE12      29.98S
SIOUX FALLS    CLEAR     75  58  55 E6        30.07F
ABERDEEN       CLEAR     76  62  62 S6        30.03F
WILLISTON      FAIR      90  50  25 S13       29.88F
DICKINSON      SUNNY     86  52  30 SE10      29.94F
BISMARCK       CLEAR     87  55  33 SE9       29.95F
FARGO          CLEAR     75  53  46 S12       30.00F
GRAND FORKS    CLEAR     80  59  48 S12       29.93F
$$

...OBSERVATIONS ACROSS THE CENTRAL AND SOUTHERN PLAINS...

CITY           SKY/WX    TMP DP  RH WIND       PRES   REMARKS
GRAND ISLAND   CLEAR     77  58  51 E6        30.09S
LINCOLN        CLEAR     77  58  51 NE6       30.07R
OMAHA          CLEAR     77  61  57 NE10      30.05R
DES MOINES     PTCLDY    75  60  59 NE10      30.05R
KANSAS CITY    PTCLDY    77  68  73 N5        30.02R
WICHITA        PTCLDY    85  69  58 NE13      30.00R
DODGE CITY     MOCLDY    86  64  47 SE10      30.07R
OKLAHOMA CITY  MOCLDY    91  67  44 S8        29.96S HX  94
DALLAS         PTCLDY    98  64  32 SE8       29.93R HX 100
AMARILLO       MOCLDY    83  58  42 S5        30.11R
$$



USA.gov is the U.S. government's official web portal to all federal, state and local government web resources and services.